Voltar ao catálogo

KUIPER-00075

AtivoComunicaçõesVLEO
NORAD 64822·PAYLOAD·🇺🇸 United States

Lançado Jul 16, 2025 de Cape Canaveral Space Force Station

Loading…

Próximas Passagens (próximas 24 horas)

TLE

AtualizadoSource: CelesTrak SupGP

Época: Sep 14, 2026, 15:30 UTC

1 64822C 25151G   26257.64623843  .00006811  00000+0  17473-3 0  2571
2 64822  51.8659  20.3518 0002792 216.1729  93.6247 15.38723824    10

Acompanhe KUIPER-00075 em tempo real com AllMySat

Download on the App Store